Location: Alexandria
(38.8050°N, 77.0470°W)
Time: 08:03:43
(UTC-04:00)

Envisat - Visible Passes

Search period start: 25 June 2018 00:00
Search period end: 05 July 2018 00:00
Orbit: 764 x 766 km, 98.2° (Epoch: 25 June)

Date Brightness Start Highest point End Pass type
(mag) Time Alt. Az. Time Alt. Az. Time Alt. Az.
25 Jun 5.5 21:36:04 10° SW 21:39:30 18° W 21:42:57 10° NW visible
28 Jun 5.3 21:24:16 10° SW 21:28:15 23° W 21:32:15 10° NW visible
30 Jun 5.7 21:51:55 10° WSW 21:54:04 13° W 21:56:14 10° WNW visible
01 Jul 4.9 21:12:37 10° SSW 21:17:00 29° W 21:21:25 10° NW visible
03 Jul 5.6 21:39:39 10° SW 21:42:47 16° W 21:45:57 10° NW visible
04 Jul 4.5 21:01:07 10° SSW 21:05:47 37° W 21:10:30 10° NNW visible
